World > North America > United States > Ohio > Ohio City  

Ohio City, OH Hourly Weather Updates

Feedback E-mail the Weather

Quick Clicks

Ohio City, OH Weather Maps

°F °C°F °C
Ohio City Weather Map
UTC Time: 4/16/2024, 19:55
Your Time:

Ohio City, OH Regional Weather

Expires:202404162000;;855181
ASUS41 KCLE 161912
RWRCLE
OHIO REGIONAL WEATHER ROUNDUP
NATIONAL WEATHER SERVICE WILMINGTON, OH
300 PM EDT TUE APR 16 2024

NOTE: "FAIR" INDICATES FEW OR NO CLOUDS BELOW 12,000 FEET WITH NO
SIGNIFICANT WEATHER AND/OR OBSTRUCTIONS TO VISIBILITY.


OHZ001>008-015>018-024>027-034-035-043-044-162000-
   NORTHWEST OHIO
  
CITY           SKY/WX    TMP DP  RH WIND       PRES   REMARKS
DEFIANCE       FAIR      75  47  36 E16G25    30.02F                  
FINDLAY        FAIR      78  44  29 E10G18    30.03F                  
TOLEDO EXPRESS FAIR      66  40  38 E16G24    30.08F                  
TOLEDO EXEC    FAIR      63  37  38 NE14G23   30.11F                  
LIMA           FAIR      80  51  36 E12       30.01F                  
$$
 

SKY/WX - Weather  TMP - Temperature  DP - Dew Point  RH - Humidity
WIND - Wind Direction/Speed PRES - Barometric Pressure VSB - Visibility
WCI - Wind Chill Index E13G22 Wind - East Wind 13 mph/Gusts of 22 mph

Trending Headlines

Trending Entertainment Headlines

Ohio City Radar Loop

Use the map search tool if you want to place a location marker on the radar map...

Ohio City Quick Facts

National Two Day Weather Forecast


E-mail the Ohio City Weather Forecast

Voice your opinion or tell us about page issues...